TimeEST,TemperatureF,Dew PointF,Humidity,Sea Level PressureIn,VisibilityMPH,Wind Direction,Wind SpeedMPH,Gust SpeedMPH,PrecipitationIn,Events,Conditions,WindDirDegrees,DateUTC
12:17 AM,13.6,7.9,78,29.96,10.0,West,9.2,-,N/A,,Overcast,280,2013-01-14 05:17:00
12:37 AM,13.5,7.7,78,29.97,10.0,West,11.5,-,N/A,,Overcast,280,2013-01-14 05:37:00
12:57 AM,13.5,7.2,76,29.97,10.0,West,9.2,-,N/A,,Overcast,280,2013-01-14 05:57:00
1:16 AM,13.1,6.6,75,29.98,10.0,West,10.4,-,N/A,,Overcast,270,2013-01-14 06:16:00
1:37 AM,12.4,6.3,76,29.99,10.0,West,8.1,-,N/A,,Mostly Cloudy,270,2013-01-14 06:37:00
1:57 AM,11.8,5.7,76,30.00,10.0,West,10.4,16.1,N/A,,Scattered Clouds,280,2013-01-14 06:57:00
2:17 AM,11.3,5.5,78,30.01,10.0,West,9.2,-,N/A,,Clear,280,2013-01-14 07:17:00
2:37 AM,10.8,5.0,78,30.02,10.0,West,6.9,-,N/A,,Clear,270,2013-01-14 07:37:00
2:57 AM,10.4,5.0,79,30.04,10.0,West,6.9,-,N/A,,Clear,260,2013-01-14 07:57:00
3:17 AM,10.4,5.0,79,30.05,10.0,West,6.9,-,N/A,,Clear,270,2013-01-14 08:17:00
3:37 AM,9.9,4.8,80,30.05,10.0,West,4.6,-,N/A,,Mostly Cloudy,270,2013-01-14 08:37:00
3:57 AM,9.5,4.6,81,30.05,10.0,Calm,Calm,-,N/A,,Mostly Cloudy,0,2013-01-14 08:57:00
4:17 AM,9.5,4.8,81,30.07,10.0,WSW,4.6,-,N/A,,Mostly Cloudy,240,2013-01-14 09:17:00
4:37 AM,9.3,4.8,82,30.07,10.0,SSW,3.5,-,N/A,,Mostly Cloudy,210,2013-01-14 09:37:00
4:56 AM,9.5,5.4,83,30.08,10.0,SW,5.8,-,N/A,,Overcast,220,2013-01-14 09:56:00
5:17 AM,10.0,5.5,82,30.08,10.0,WSW,5.8,-,N/A,,Overcast,240,2013-01-14 10:17:00
5:36 AM,10.2,5.5,81,30.08,10.0,SW,5.8,-,N/A,Snow,Light Snow,230,2013-01-14 10:36:00
5:57 AM,10.2,5.5,81,30.09,10.0,SW,5.8,-,N/A,,Overcast,220,2013-01-14 10:57:00
6:55 AM,8.6,3.2,79,30.13,10.0,SW,6.9,-,N/A,,Scattered Clouds,220,2013-01-14 11:55:00
7:55 AM,8.6,3.2,79,30.19,10.0,WSW,6.9,-,N/A,,Clear,240,2013-01-14 12:55:00
8:50 AM,6.8,3.2,85,30.20,10.0,SW,4.6,-,N/A,,Clear,220,2013-01-14 13:50:00
9:50 AM,8.6,3.2,79,30.23,10.0,WSW,10.4,-,N/A,,Clear,240,2013-01-14 14:50:00
10:50 AM,12.2,5.0,73,30.25,10.0,WSW,8.1,-,N/A,,Clear,240,2013-01-14 15:50:00
11:50 AM,15.8,3.2,58,30.24,10.0,WSW,8.1,-,N/A,,Clear,250,2013-01-14 16:50:00
12:50 PM,17.6,5.0,58,30.21,10.0,SW,9.2,16.1,N/A,,Clear,220,2013-01-14 17:50:00
1:50 PM,19.4,5.0,54,30.18,10.0,West,12.7,-,N/A,,Clear,260,2013-01-14 18:50:00
2:50 PM,21.2,6.8,54,30.19,10.0,SW,9.2,-,N/A,,Clear,220,2013-01-14 19:50:00
3:50 PM,21.2,5.0,50,30.20,10.0,SW,5.8,-,N/A,,Scattered Clouds,220,2013-01-14 20:50:00
4:50 PM,21.2,5.0,50,30.20,10.0,SW,11.5,-,N/A,,Mostly Cloudy,220,2013-01-14 21:50:00
5:50 PM,19.4,5.0,54,30.21,10.0,WSW,9.2,-,N/A,,Scattered Clouds,250,2013-01-14 22:50:00
6:55 PM,17.6,5.0,58,30.21,10.0,West,10.4,-,N/A,,Clear,260,2013-01-14 23:55:00
7:50 PM,14.0,5.0,67,30.22,10.0,West,8.1,-,N/A,,Clear,260,2013-01-15 00:50:00
8:55 PM,12.2,3.2,67,30.21,10.0,West,11.5,-,N/A,,Clear,270,2013-01-15 01:55:00
9:50 PM,10.4,3.2,73,30.22,10.0,West,10.4,-,N/A,,Clear,260,2013-01-15 02:50:00
10:17 PM,11.1,3.0,70,30.23,10.0,WSW,5.8,-,N/A,,Scattered Clouds,250,2013-01-15 03:17:00
10:37 PM,11.3,3.2,70,30.23,10.0,West,8.1,-,N/A,,Overcast,280,2013-01-15 03:37:00
10:56 PM,11.1,0.9,63,30.23,10.0,WNW,12.7,21.9,N/A,,Overcast,290,2013-01-15 03:56:00
11:17 PM,10.2,-0.4,62,30.23,10.0,West,12.7,19.6,N/A,,Scattered Clouds,270,2013-01-15 04:17:00
11:37 PM,9.5,0.3,66,30.24,10.0,WSW,9.2,-,N/A,,Clear,250,2013-01-15 04:37:00
11:56 PM,9.3,-0.2,65,30.24,10.0,West,8.1,-,N/A,,Clear,260,2013-01-15 04:56:00